Cosmos 2297 Rocket - Orbit

View from above orbital plane
View from above orbital plane
View from above satellite
View from above satellite

Ground track
Ground track

The orbit data is extracted from the following two-line orbital elements,

1 23405U 94077B   13143.20245734 -.00000087  00000-0 -19998-4 0  7401
2 23405 070.9842 099.4083 0001879 353.2982 100.3154 14.15045730955290
Epoch (UTC): 23 May 2013 04:51:32
Eccentricity: 0.0001879
inclination: 70.9842°
perigee height: 841 km
apogee height: 843 km
right ascension of ascending node: 99.4083°
argument of perigee: 353.2982°
revolutions per day: 14.15045730
mean anomaly at epoch: 100.3154°
orbit number at epoch: 95529

The dashed part of the orbit path shows where the satellite is in the earth's shadow,  

Developed and maintained by Chris Peat, Heavens-Above GmbH. Please read the updated FAQ before sending e-mail. Imprint. DLR